sat.trackr.live / text

‹ back to catalog

STARLINK-5717

NORAD 55618 · 2023-020BB

PAYLOAD ACTIVE UNKNOWN

§ Identity

Operator
Country
US
Launch date
2023-02-12
Launch site
AFETR
Launch vehicle
Mass (kg)
RCS (m²)

Purposes: comms

External: N2YO · Heavens-Above · Gunter

§ Orbital elements

Epoch: 2026-05-24T19:37:12.990144Z

Period
94.27 min
Inclination
43.0016°
Eccentricity
0.0001160
Mean motion
15.27573786 rev/d
Perigee alt
482.3 km
Apogee alt
483.9 km
Semi-major
6,861.2 km
B*
1.8030e-5
RAAN
284.1643°
Arg perigee
274.3065°
Mean anomaly
85.7654°
Rev number
18,068

§ Raw data

STARLINK-57171 55618U 23020BB  26144.81751146  .00000234  00000+0  18030-4 0  99962 55618  43.0016 284.1643 0001160 274.3065  85.7654 15.27573786180683

JSON: /api/v1/satellites/55618 · /tle

For live sub-satellite position, see the globe view (requires WebGL).

§ Visibility from observer

Set your observer location to see the next 7 days of passes ≥ 10°. The values pass through the URL so the page stays shareable.

No JS? Fill the form by hand. The geolocation button needs JavaScript.